[[{"header":{"parameterUnit":"m.s-1","parameterCategory":1,"la1":30.2991,"la2":30.254,"lo1":-89.0895,"lo2":-89.0444,"dy":0.0017,"dx":0.0017,"nx":28,"ny":28,"refTime":"2025-04-07T03:00:00:Z","depth":0,"parameterNumber":2,"parameterNumberName":"U-component_of_WINDS"},"data":[0,0,0,0,0,0,0,0,0,0,0,0,0,0,0,0,0,0,0,0,0,0,0,0,0,0,0,0,0,0,0,0,0,0,0,0,0,0,0,0,0,0,0,0,0,0,0,0,0,0,0,0,0,0,0,0,0,0,1.9534,1.9534,0,1.9552,1.9552,1.9552,1.9528,1.9528,1.9527,1.9526,1.9544,1.9546,1.9547,0,0,0,0,0,0,0,0,0,0,0,0,0,1.9479,1.948,1.9534,1.9534,1.9534,1.9552,1.9552,1.9552,1.9529,1.9528,1.9527,1.9526,1.9544,1.9545,1.9547,0,0,0,0,0,0,0,0,0,0,0,0,0,1.95,1.948,1.9534,1.9524,1.9524,1.9552,1.9552,1.9553,1.9529,1.9528,1.9526,1.9525,1.9543,1.9545,1.9547,1.9585,0,0,1.9553,1.9554,0,0,0,0,0,0,0,0,1.9499,1.9502,1.9526,1.9525,1.9524,1.9537,1.954,1.9563,1.9529,1.9527,1.9526,1.9524,1.9543,1.9545,1.9551,1.9586,1.9587,1.9553,1.9554,1.9555,1.9556,0,0,0,0,0,0,0,1.9498,1.9501,1.9541,1.9526,1.9525,1.952,1.9521,1.9544,1.9542,1.9527,1.9525,1.9528,1.9542,1.9549,1.9551,1.9587,1.9553,1.9555,1.9556,1.9557,1.9655,1.9657,0,0,0,0,0,0,1.9497,1.95,1.954,1.9541,1.9508,1.9522,1.9523,1.9534,1.9542,1.9541,1.9529,1.9527,1.9546,1.9549,1.9552,1.9597,1.9555,1.9557,1.9558,1.9654,1.9655,1.9657,0,0,0,0,0,0,1.9496,1.9501,1.954,1.952,1.9525,1.9524,1.9536,1.9535,1.9542,1.9543,1.9543,1.9536,1.9546,1.9549,1.9577,1.9597,1.9558,1.956,1.9652,1.9654,1.9656,1.9687,0,0,0,0,0,0,1.9495,1.9501,1.9515,1.9521,1.9526,1.9565,1.9537,1.9536,1.9545,1.9543,1.955,1.955,1.9545,1.9574,1.9579,1.9599,1.9561,1.965,1.9653,1.9656,1.9684,1.969,1.9695,0,0,0,0,0,1.9493,1.9523,1.9516,1.9521,1.9544,1.9566,1.9569,1.9562,1.9547,1.9561,1.9562,1.955,1.9595,1.9578,1.9583,1.9603,1.9649,1.9652,1.9655,1.9682,1.9689,1.9695,0,0,0,0,0,0,1.9518,1.9523,1.9515,1.9548,1.9557,1.9562,1.9579,1.957,1.9583,1.958,1.9571,1.9573,1.9603,1.9606,1.9587,1.9641,1.9619,1.9624,1.9638,1.9645,1.965,1.9648,1.9563,0,0,0,0,0,1.9528,1.9545,1.9549,1.9577,1.9582,1.958,1.959,1.9584,1.9593,1.9596,1.9599,1.9608,1.9624,1.9635,1.9649,1.9685,1.9687,1.9702,1.9708,1.9712,1.9716,1.9736,1.9743,1.9668,1.9668,1.9668,0,0,1.9547,1.9552,1.9564,1.9583,1.9588,1.9607,1.9583,1.9603,1.9617,1.9599,1.9626,1.9629,1.9638,1.967,1.9685,1.9674,1.9737,1.9716,1.972,1.9721,1.974,1.9747,1.9753,1.967,1.967,1.9669,0,0,1.9592,1.9598,1.9622,1.9629,1.9639,1.9638,1.9644,1.9651,1.9652,1.9679,1.9666,1.9682,1.971,1.9718,1.9725,1.9775,1.9764,1.978,1.9808,1.9827,1.9833,1.9838,1.9856,1.9862,1.9784,1.9784,1.9784,0,1.9615,1.9642,1.9636,1.9658,1.9667,1.9652,1.9677,1.9684,1.9698,1.9705,1.9692,1.9728,1.9733,1.9767,1.978,1.9786,1.9793,1.9778,1.9833,1.9838,1.9843,1.9859,1.9866,1.9786,1.9786,1.9786,1.9785,0,1.967,1.9689,1.9708,1.9722,1.9734,1.9757,1.9755,1.9767,1.9761,1.9762,1.979,1.9796,1.9812,1.982,1.9814,1.9854,1.9847,1.9834,1.9811,1.9852,1.9867,1.9874,1.9789,1.9788,1.9787,1.9787,0,0,1.973,1.9742,1.9749,1.9755,1.9766,1.9781,1.9804,1.982,1.9831,1.9842,1.9861,1.9886,1.9874,1.9883,1.9878,1.9895,1.9935,1.988,1.988,1.989,1.9979,1.9987,1.9995,1.9928,1.9929,1.993,1.9978,0,1.9774,1.9814,1.981,1.9848,1.9865,1.9853,1.9873,1.9882,1.9884,1.9899,1.9901,1.9919,1.9902,1.9908,1.9924,1.9926,1.9952,1.9923,1.9945,1.9946,1.9942,2.0003,2.0012,2.0057,1.9984,1.9985,1.9985,0,1.9831,1.9844,1.9884,1.9893,1.99,1.9918,1.9933,1.9949,1.9959,1.9959,1.997,1.9962,1.9986,1.9965,1.9997,1.9978,1.9987,1.999,1.9991,1.9992,1.9967,2.0005,2.0071,2.0077,1.9995,1.9994,1.9994,0,1.987,1.9898,1.9925,1.9932,1.9943,1.9956,1.9961,1.997,1.9981,1.9994,2.0001,2.0017,2.0026,2.0039,2.0037,2.0021,2.007,2.0048,2.0071,2.0071,2.008,2.0079,2.0147,2.0088,2.0088,2.0088,2.0088,0,1.9919,1.9944,1.9943,1.996,1.9987,1.9983,2.0011,2.0015,2.0023,2.0041,2.0032,2.0048,2.0045,2.0062,2.006,2.0088,2.0092,2.0093,2.0092,2.0093,2.0093,2.0098,2.0094,2.009,2.0089,2.0089,2.0089,0,1.9966,1.9967,1.9996,2.0005,2.0008,2.0028,2.0035,2.0051,2.0053,2.0075,2.008,2.0083,2.0102,2.0102,2.0124,2.0123,2.0157,2.0153,2.0153,2.0152,2.0174,2.0172,2.0247,2.0257,2.0192,2.0193,2.0193,0,1.9997,2.0016,2.0027,2.0039,2.0045,2.0063,2.0074,2.0071,2.0083,2.0097,2.0112,2.0131,2.0145,2.0178,2.0181,2.0199,2.0194,2.022,2.0197,2.0198,2.0194,2.0193,2.0194,2.0224,2.0224,2.0225,2.0226,0,2.0052,2.0052,2.0068,2.0084,2.0098,2.0111,2.0123,2.0132,2.0131,2.0145,2.0165,2.0177,2.02,2.0219,2.0236,2.0242,2.0234,2.0233,2.0239,2.024,2.0239,2.0239,2.0164,2.0231,2.023,2.023,2.023,2.0229,2.0091,2.0108,2.0118,2.0137,2.0146,2.0158,2.0173,2.0178,2.0194,2.0213,2.0211,2.0233,2.0245,2.0267,2.0274,2.0292,2.0283,2.0292,2.0294,2.0296,2.0298,2.0237,2.0295,2.0295,2.0295,2.0295,2.0295,0,2.0145,2.0152,2.0169,2.0186,2.0201,2.0193,2.0206,2.0219,2.0239,2.025,2.0266,2.0289,2.0308,2.0314,2.0333,2.0346,2.0343,2.0351,2.0349,2.035,2.0305,2.0298,2.0353,2.0353,2.0353,2.0353,2.0353,2.0353,2.0174,2.0202,2.0203,2.0235,2.0242,2.0264,2.0272,2.0283,2.0292,2.0319,2.0335,2.0339,2.0348,2.0368,2.0385,2.0386,2.0393,2.0403,2.0402,2.0359,2.0354,2.0348,2.0341,2.0404,2.0404,2.0446,2.0446,2.0447]},{"header":{"parameterUnit":"m.s-1","parameterCategory":1,"la1":30.2991,"la2":30.254,"lo1":-89.0895,"lo2":-89.0444,"dy":0.0017,"dx":0.0017,"nx":28,"ny":28,"refTime":"2025-04-07T03:00:00:Z","depth":0,"parameterNumber":3,"parameterNumberName":"V-component_of_WINDS"},"data":[0,0,0,0,0,0,0,0,0,0,0,0,0,0,0,0,0,0,0,0,0,0,0,0,0,0,0,0,0,0,0,0,0,0,0,0,0,0,0,0,0,0,0,0,0,0,0,0,0,0,0,0,0,0,0,0,0,0,-5.113,-5.1132,0,-5.1262,-5.1264,-5.1265,-5.1223,-5.122,-5.1217,-5.1215,-5.1349,-5.1355,-5.1361,0,0,0,0,0,0,0,0,0,0,0,0,0,-5.0841,-5.0847,-5.113,-5.1132,-5.1134,-5.1262,-5.1264,-5.1266,-5.1223,-5.122,-5.1217,-5.1213,-5.1347,-5.1355,-5.1362,0,0,0,0,0,0,0,0,0,0,0,0,0,-5.0969,-5.0848,-5.113,-5.1128,-5.1129,-5.1262,-5.1264,-5.1266,-5.1224,-5.122,-5.1216,-5.1212,-5.1345,-5.1354,-5.1363,-5.1505,0,0,-5.1392,-5.1396,0,0,0,0,0,0,0,0,-5.0962,-5.098,-5.1127,-5.1128,-5.113,-5.1222,-5.1211,-5.1346,-5.1225,-5.1188,-5.1215,-5.121,-5.131,-5.1322,-5.1356,-5.1512,-5.1517,-5.1392,-5.1398,-5.1402,-5.1405,0,0,0,0,0,0,0,-5.0953,-5.0974,-5.1182,-5.1129,-5.1131,-5.112,-5.1134,-5.1237,-5.1271,-5.1191,-5.1188,-5.1204,-5.131,-5.1347,-5.1359,-5.1519,-5.1392,-5.14,-5.1406,-5.141,-5.1797,-5.1802,0,0,0,0,0,0,-5.0943,-5.0967,-5.1178,-5.1186,-5.1034,-5.1129,-5.1144,-5.1197,-5.127,-5.1277,-5.1208,-5.1202,-5.1333,-5.1348,-5.1364,-5.1534,-5.1402,-5.1411,-5.1416,-5.1792,-5.1798,-5.1803,0,0,0,0,0,0,-5.0937,-5.0963,-5.1173,-5.1076,-5.1102,-5.1138,-5.1198,-5.1201,-5.1238,-5.1283,-5.1289,-5.1239,-5.1331,-5.135,-5.147,-5.1538,-5.1415,-5.1423,-5.1787,-5.1794,-5.1801,-5.1877,0,0,0,0,0,0,-5.0929,-5.0961,-5.1015,-5.1078,-5.1107,-5.1278,-5.1202,-5.1207,-5.1255,-5.1248,-5.1314,-5.1321,-5.1329,-5.1457,-5.148,-5.1549,-5.1431,-5.1781,-5.179,-5.1798,-5.1869,-5.1886,-5.1901,0,0,0,0,0,-5.0919,-5.1032,-5.1018,-5.1044,-5.1176,-5.1282,-5.1299,-5.1306,-5.126,-5.1315,-5.1344,-5.1319,-5.1527,-5.1469,-5.1495,-5.1568,-5.1777,-5.1788,-5.1798,-5.1861,-5.1882,-5.19,0,0,0,0,0,0,-5.0977,-5.104,-5.1026,-5.1162,-5.1217,-5.1275,-5.1344,-5.1328,-5.1397,-5.1388,-5.1394,-5.1409,-5.1532,-5.1562,-5.1496,-5.1709,-5.1645,-5.1661,-5.1685,-5.1705,-5.1721,-5.1711,-5.1438,0,0,0,0,0,-5.1005,-5.1086,-5.1137,-5.1252,-5.128,-5.1308,-5.1354,-5.1355,-5.1412,-5.1435,-5.1472,-5.1528,-5.1606,-5.1657,-5.1732,-5.1873,-5.1886,-5.1936,-5.1952,-5.1965,-5.1978,-5.2054,-5.2077,-5.1838,-5.1838,-5.1838,0,0,-5.1065,-5.111,-5.116,-5.1265,-5.1307,-5.139,-5.1327,-5.1418,-5.1479,-5.1448,-5.1563,-5.1593,-5.1656,-5.1787,-5.1846,-5.1815,-5.2047,-5.1978,-5.1988,-5.1995,-5.2067,-5.209,-5.211,-5.1845,-5.1844,-5.1843,0,0,-5.1216,-5.1258,-5.1358,-5.1402,-5.1468,-5.1485,-5.1509,-5.157,-5.1588,-5.1704,-5.1682,-5.1755,-5.189,-5.1935,-5.1976,-5.2144,-5.2123,-5.2168,-5.2251,-5.2325,-5.2344,-5.2361,-5.242,-5.2441,-5.2182,-5.2182,-5.2182,0,-5.1282,-5.1406,-5.1412,-5.1504,-5.1551,-5.1527,-5.1628,-5.167,-5.1757,-5.1789,-5.1753,-5.1921,-5.1962,-5.2103,-5.2144,-5.2178,-5.2205,-5.216,-5.2341,-5.2358,-5.2373,-5.243,-5.2452,-5.2187,-5.2186,-5.2186,-5.2185,0,-5.1484,-5.157,-5.1643,-5.1727,-5.1782,-5.1878,-5.1898,-5.1953,-5.1949,-5.197,-5.2088,-5.2136,-5.2219,-5.2253,-5.225,-5.2393,-5.2372,-5.2339,-5.2275,-5.2401,-5.2454,-5.2476,-5.2194,-5.2192,-5.2191,-5.219,0,0,-5.1675,-5.176,-5.1787,-5.1824,-5.1894,-5.1961,-5.2056,-5.2138,-5.2184,-5.2245,-5.2324,-5.2438,-5.2408,-5.2454,-5.2456,-5.2521,-5.265,-5.248,-5.2482,-5.2509,-5.281,-5.2833,-5.2858,-5.2637,-5.2641,-5.2645,-5.2804,0,-5.1831,-5.1998,-5.2006,-5.2157,-5.2237,-5.2215,-5.2298,-5.235,-5.2372,-5.2442,-5.2467,-5.2547,-5.2502,-5.2529,-5.2593,-5.2621,-5.271,-5.261,-5.271,-5.2714,-5.2694,-5.2886,-5.2912,-5.306,-5.2825,-5.2828,-5.2831,0,-5.2035,-5.2102,-5.2261,-5.232,-5.2353,-5.2428,-5.2502,-5.257,-5.2628,-5.264,-5.2692,-5.2684,-5.2781,-5.2714,-5.2847,-5.2778,-5.282,-5.284,-5.2846,-5.2855,-5.2779,-5.2899,-5.3107,-5.3129,-5.2864,-5.2861,-5.2859,0,-5.2157,-5.2287,-5.2399,-5.2431,-5.2503,-5.2555,-5.2587,-5.2641,-5.2689,-5.2755,-5.2786,-5.2862,-5.2904,-5.2962,-5.2975,-5.2926,-5.3108,-5.3042,-5.3119,-5.3119,-5.3158,-5.3155,-5.3375,-5.3187,-5.3187,-5.3186,-5.3186,0,-5.233,-5.2428,-5.2454,-5.2523,-5.2632,-5.264,-5.2748,-5.2777,-5.2825,-5.2898,-5.2884,-5.2954,-5.2967,-5.3039,-5.305,-5.3158,-5.3177,-5.3188,-5.319,-5.3189,-5.3188,-5.3216,-5.3205,-5.3192,-5.3191,-5.319,-5.3189,0,-5.2484,-5.2506,-5.2626,-5.2683,-5.27,-5.2778,-5.2827,-5.2893,-5.2913,-5.3007,-5.3029,-5.3061,-5.3145,-5.3164,-5.3264,-5.3271,-5.3399,-5.3391,-5.3379,-5.3378,-5.3454,-5.3446,-5.3698,-5.3731,-5.3523,-5.3525,-5.3526,0,-5.2592,-5.2668,-5.2733,-5.2781,-5.2816,-5.2894,-5.2943,-5.2954,-5.3005,-5.3077,-5.3134,-5.3216,-5.3283,-5.3418,-5.345,-5.3526,-5.3519,-5.3602,-5.353,-5.3527,-5.3519,-5.3514,-5.3521,-5.3616,-5.3618,-5.362,-5.3621,0,-5.2782,-5.2789,-5.286,-5.2936,-5.2995,-5.3055,-5.3112,-5.3152,-5.317,-5.3229,-5.3315,-5.3366,-5.3468,-5.355,-5.3626,-5.3659,-5.3643,-5.3644,-5.3665,-5.3665,-5.3654,-5.366,-5.3415,-5.3638,-5.3636,-5.3635,-5.3634,-5.3633,-5.2916,-5.2982,-5.3037,-5.3117,-5.3161,-5.3215,-5.3279,-5.3308,-5.338,-5.3463,-5.3465,-5.3559,-5.3614,-5.3715,-5.3752,-5.3825,-5.3799,-5.3831,-5.3838,-5.3846,-5.3852,-5.3644,-5.3839,-5.3838,-5.3838,-5.3838,-5.3837,0,-5.3104,-5.3139,-5.3213,-5.3292,-5.3355,-5.3336,-5.3397,-5.3451,-5.3533,-5.3587,-5.3652,-5.375,-5.3829,-5.3868,-5.3946,-5.3997,-5.3991,-5.4017,-5.4012,-5.402,-5.3871,-5.3844,-5.4019,-5.4019,-5.4019,-5.4019,-5.4019,-5.4019,-5.3209,-5.3318,-5.3332,-5.3463,-5.3497,-5.3588,-5.3625,-5.3674,-5.3716,-5.3827,-5.3892,-5.3917,-5.3964,-5.4045,-5.4117,-5.4126,-5.4155,-5.4183,-5.4189,-5.4049,-5.403,-5.4013,-5.3987,-5.419,-5.419,-5.4331,-5.4333,-5.4334]}]]